Regional Weather Roundup
Issued by NWS Bismarck, ND

Home | Current Version | Previous Version | Text Only | Print | Product List | Glossary On
Versions: 1 2 3 4 5 6 7 8 9 10 11 12 13 14 15 16 17 18 19 20 21 22 23 24 25 26 27 28 29 30 31 32 33 34 35 36 37 38 39 40 41 42 43 44 45 46 47 48 49 50
000
ASUS43 KBIS 300220
RWRBIS

NWR BROADCAST TEXT
NATIONAL WEATHER SERVICE BISMARCK ND
800 PM CST THU JAN 29 2015

NOTE: "FAIR" INDICATES FEW OR NO CLOUDS BELOW 12,000 FEET WITH NO
SIGNIFICANT WEATHER AND/OR OBSTRUCTIONS TO VISIBILITY.


CITY           SKY/WX    TMP DP  RH WIND       PRES   REMARKS
WILLISTON      CLEAR     26  20  77 CALM      30.34F
MINOT          CLEAR     13   9  84 E5        30.43F WCI   5
MINOT AFB      CLEAR     11  11  98 SE9       30.44F WCI  -2
BISMARCK       CLEAR     18  16  92 SE7       30.47S WCI   9
DICKINSON      CLEAR     24  17  74 SE9       30.34F WCI  14
GARRISON         N/A     18  15  88 SE8       30.42F WCI   8
HETTINGER ARPT CLEAR     25  17  72 SE3       30.38S
JAMESTOWN      CLOUDY    17  11  77 NW5       30.50S WCI  10
BEACH          FAIR      27  25  93 S8        30.32F WCI  18
CARRINGTON     FLURRIES  16  14  93 MISG      30.50F
CROSBY         FAIR      19  19 100 SE5       30.35F WCI  13
HARVEY         CLOUDY    14  10  85 E3        30.49S
HAZEN          FAIR      19  18  93 SE7       30.44F WCI  10
LINTON         FAIR      21  21 100 E7        30.47S WCI  13
MANDAN         FAIR      19  18  93 E8        30.46R WCI   9
OAKES            N/A     18  14  86 N7        30.54R WCI   8
RUGBY          CLOUDY     7   3  85 S6        30.48F WCI  -3
STANLEY        FAIR      18  18 100 SE10      30.36F WCI   6
TIOGA          FAIR      16  16 100 SE5       30.37F WCI   9
WATFORD CITY   FAIR      27  23  86 SE13      30.33F WCI  16
$$

CITY           SKY/WX    TMP DP  RH WIND       PRES   REMARKS
GRAND FORKS    PTCLDY     4   0  83 N3        30.58R
GRAND FORKS AF PTCLDY     4  -1  80 N3        30.58S
DEVILS LAKE    CLOUDY    10   3  72 E3        30.50S
FARGO          FAIR      10   3  73 NE9       30.57R WCI  -3
CANDO          CLOUDY     9   5  85 E7        30.50F WCI  -3
CAVALIER       FAIR       5   0  78 CALM      30.58S
GWINNER        CLOUDY    19  14  79 N8        30.55S WCI   9
ROLLA          CLOUDY     7   5  92 SE5       30.46F WCI  -2
WALHALLA         N/A      5   0  78 CALM      30.57S
$$

CITY           SKY/WX    TMP DP  RH WIND       PRES   REMARKS
ABERDEEN       CLOUDY    22  15  75 N9        30.54R WCI  12
MOBRIDGE       CLEAR     27  20  75 E9        30.44S WCI  18
BUFFALO          N/A     31  10  41 SE9       30.29F
RAPID CITY     CLEAR     26  14  60 CALM      30.38F
GLASGOW        CLEAR     32  26  78 E13       30.23F
SIDNEY         CLEAR     25  19  80 CALM      30.33F
WOLF POINT     CLEAR     28  23  81 NE6       30.29F
GLENDIVE       CLEAR     32  21  64 S7        30.30F
MILES CITY     CLEAR     36  24  62 S8        30.28F
BAKER          CLEAR     26  17  68 S10       30.33F WCI  16
$$

CITY           SKY/WX    TMP DP  RH WIND       PRES   REMARKS
BILLINGS       MOCLDY    41  27  57 W13       30.25S
GREAT FALLS    MOCLDY    41  20  43 S14       30.21R
REGINA         MOCLDY    16  14  93 SE14      30.31F WCI   1
ESTEVAN        MOCLDY    16  12  86 E10       30.36F WCI   3
$$




USA.gov is the U.S. government's official web portal to all federal, state and local government web resources and services.